| time (UTC) | temp F | wind direction | speed MPH | gust MPH | rain 1hr in | rain 24hr in | rain mn in | humidity % | barometer mb |
| 20260505153312 | 77 | 209 | 5.0 | 10.0 | 0.00 | 0.00 | 0.00 | 45 | 1008.4 |
| 20260505152812 | 77 | 262 | 4.0 | 12.0 | 0.00 | 0.00 | 0.00 | 46 | 1008.5 |
| 20260505152314 | 77 | 226 | 8.0 | 11.0 | 0.00 | 0.00 | 0.00 | 45 | 1008.7 |
| 20260505151812 | 77 | 278 | 3.0 | 15.0 | 0.00 | 0.00 | 0.00 | 46 | 1008.6 |
| 20260505151313 | 76 | 233 | 6.0 | 15.0 | 0.00 | 0.00 | 0.00 | 44 | 1008.6 |
| 20260505150834 | 77 | 237 | 5.0 | 11.0 | 0.00 | 0.00 | 0.00 | 46 | 1008.6 |
| 20260505150312 | 76 | 226 | 3.0 | 11.0 | 0.00 | 0.00 | 0.00 | 48 | 1008.6 |
| 20260505140311 | 71 | 203 | 7.0 | 10.0 | 0.00 | 0.00 | 0.00 | 54 | 1009.2 |
| 20260505124833 | 64 | 213 | 4.0 | 8.0 | 0.00 | 0.00 | 0.00 | 65 | 1009.9 |
| 20260505124312 | 64 | 234 | 4.0 | 7.0 | 0.00 | 0.00 | 0.00 | 65 | 1009.8 |
| 20260505123814 | 64 | 166 | 3.0 | 7.0 | 0.00 | 0.00 | 0.00 | 65 | 1009.8 |
| 20260505123314 | 64 | 223 | 2.0 | 7.0 | 0.00 | 0.00 | 0.00 | 65 | 1009.7 |
| 20260505122837 | 64 | 211 | 3.0 | 7.0 | 0.00 | 0.00 | 0.00 | 66 | 1009.7 |
| 20260505122319 | 63 | 176 | 2.0 | 7.0 | 0.00 | 0.00 | 0.00 | 66 | 1009.8 |
| 20260505121818 | 63 | 198 | 3.0 | 7.0 | 0.00 | 0.00 | 0.00 | 67 | 1009.8 |
| 20260505121316 | 63 | 217 | 4.0 | 7.0 | 0.00 | 0.00 | 0.00 | 66 | 1009.7 |
| 20260505120817 | 63 | 218 | 4.0 | 6.0 | 0.00 | 0.00 | 0.00 | 67 | 1009.7 |
| 20260505120334 | 63 | 185 | 2.0 | 5.0 | 0.00 | 0.00 | 0.00 | 69 | 1009.7 |
| 20260505115831 | 62 | 196 | 3.0 | 6.0 | 0.00 | 0.00 | 0.00 | 68 | 1009.7 |
| 20260505115314 | 62 | 200 | 3.0 | 6.0 | 0.00 | 0.00 | 0.00 | 69 | 1009.6 |
| 20260505114815 | 61 | 210 | 3.0 | 5.0 | 0.00 | 0.00 | 0.00 | 69 | 1009.6 |
| 20260505114316 | 61 | 219 | 1.0 | 5.0 | 0.00 | 0.00 | 0.00 | 69 | 1009.6 |
| 20260505113817 | 61 | 214 | 3.0 | 6.0 | 0.00 | 0.00 | 0.00 | 69 | 1009.5 |
| 20260505113340 | 62 | 215 | 3.0 | 5.0 | 0.00 | 0.00 | 0.00 | 68 | 1009.4 |
| 20260505112841 | 62 | 203 | 3.0 | 7.0 | 0.00 | 0.00 | 0.00 | 69 | 1009.4 |
| 20260505112321 | 61 | 244 | 2.0 | 5.0 | 0.00 | 0.00 | 0.00 | 71 | 1009.3 |
| 20260505111824 | 61 | 221 | 2.0 | 4.0 | 0.00 | 0.00 | 0.00 | 72 | 1009.2 |